<?xml version="1.0" encoding="UTF-8" standalone="no" ?>
<gpx xmlns="http://www.topografix.com/GPX/1/1" xmlns:xsi="http://www.w3.org/2001/XMLSchema-instance" xsi:schemaLocation="http://www.topografix.com/GPX/1/1 http://www.topografix.com/GPX/1/1/gpx.xsd" version="1.1" creator="VisuGPX - https://www.visugpx.com">
  <metadata>
    <name>Randonnée du 01/01/2025 à 19:09</name>
  </metadata>
  <wpt lat="45.42655" lon="5.70688">
    <ele>579</ele>
    <name><![CDATA[]]></name>
    <type><![CDATA[GENERIC]]></type>
  </wpt>
  <wpt lat="45.42655" lon="5.70688">
    <ele>579</ele>
    <name><![CDATA[]]></name>
    <type><![CDATA[GENERIC]]></type>
  </wpt>
  <trk>
    <name><![CDATA[Randonnée du 01/01/2025 à 19:09]]></name>
    <trkseg>
      <trkpt lat="45.42655" lon="5.70688">
        <ele>579</ele>
        <time>2025-01-02T10:12:48.000Z</time>
      </trkpt>
      <trkpt lat="45.42757" lon="5.7077">
        <ele>584</ele>
        <time>2025-01-02T10:12:48.000Z</time>
      </trkpt>
      <trkpt lat="45.428" lon="5.70805">
        <ele>585</ele>
        <time>2025-01-02T10:12:48.000Z</time>
      </trkpt>
      <trkpt lat="45.42821" lon="5.70832">
        <ele>587</ele>
        <time>2025-01-02T10:12:48.000Z</time>
      </trkpt>
      <trkpt lat="45.4285" lon="5.70852">
        <ele>590</ele>
        <time>2025-01-02T10:12:48.000Z</time>
      </trkpt>
      <trkpt lat="45.42871" lon="5.70874">
        <ele>589</ele>
        <time>2025-01-02T10:12:48.000Z</time>
      </trkpt>
      <trkpt lat="45.42919" lon="5.70885">
        <ele>598</ele>
        <time>2025-01-02T10:12:48.000Z</time>
      </trkpt>
      <trkpt lat="45.42939" lon="5.70906">
        <ele>599</ele>
        <time>2025-01-02T10:12:48.000Z</time>
      </trkpt>
      <trkpt lat="45.42971" lon="5.70918">
        <ele>598</ele>
        <time>2025-01-02T10:12:48.000Z</time>
      </trkpt>
      <trkpt lat="45.4299" lon="5.7093">
        <ele>598</ele>
        <time>2025-01-02T10:12:48.000Z</time>
      </trkpt>
      <trkpt lat="45.43009" lon="5.70966">
        <ele>593</ele>
        <time>2025-01-02T10:12:48.000Z</time>
      </trkpt>
      <trkpt lat="45.43035" lon="5.70995">
        <ele>591</ele>
        <time>2025-01-02T10:12:48.000Z</time>
      </trkpt>
      <trkpt lat="45.43062" lon="5.71014">
        <ele>593</ele>
        <time>2025-01-02T10:12:48.000Z</time>
      </trkpt>
      <trkpt lat="45.43084" lon="5.71035">
        <ele>593</ele>
        <time>2025-01-02T10:12:48.000Z</time>
      </trkpt>
      <trkpt lat="45.4311" lon="5.71075">
        <ele>594</ele>
        <time>2025-01-02T10:12:48.000Z</time>
      </trkpt>
      <trkpt lat="45.43151" lon="5.71097">
        <ele>597</ele>
        <time>2025-01-02T10:12:48.000Z</time>
      </trkpt>
      <trkpt lat="45.43175" lon="5.7112">
        <ele>597</ele>
        <time>2025-01-02T10:12:48.000Z</time>
      </trkpt>
      <trkpt lat="45.43212" lon="5.71144">
        <ele>596</ele>
        <time>2025-01-02T10:12:48.000Z</time>
      </trkpt>
      <trkpt lat="45.43249" lon="5.71165">
        <ele>594</ele>
        <time>2025-01-02T10:12:48.000Z</time>
      </trkpt>
      <trkpt lat="45.43267" lon="5.71176">
        <ele>595</ele>
        <time>2025-01-02T10:12:48.000Z</time>
      </trkpt>
      <trkpt lat="45.43333" lon="5.71209">
        <ele>597</ele>
        <time>2025-01-02T10:12:48.000Z</time>
      </trkpt>
      <trkpt lat="45.43336" lon="5.71253">
        <ele>596</ele>
        <time>2025-01-02T10:12:48.000Z</time>
      </trkpt>
      <trkpt lat="45.43347" lon="5.71348">
        <ele>598</ele>
        <time>2025-01-02T10:12:48.000Z</time>
      </trkpt>
      <trkpt lat="45.43334" lon="5.71429">
        <ele>605</ele>
        <time>2025-01-02T10:12:48.000Z</time>
      </trkpt>
      <trkpt lat="45.43332" lon="5.71467">
        <ele>605</ele>
        <time>2025-01-02T10:12:48.000Z</time>
      </trkpt>
      <trkpt lat="45.43342" lon="5.71499">
        <ele>609</ele>
        <time>2025-01-02T10:12:48.000Z</time>
      </trkpt>
      <trkpt lat="45.43377" lon="5.71527">
        <ele>617</ele>
        <time>2025-01-02T10:12:48.000Z</time>
      </trkpt>
      <trkpt lat="45.43396" lon="5.71529">
        <ele>625</ele>
        <time>2025-01-02T10:12:48.000Z</time>
      </trkpt>
      <trkpt lat="45.43401" lon="5.71536">
        <ele>625</ele>
        <time>2025-01-02T10:12:48.000Z</time>
      </trkpt>
      <trkpt lat="45.43419" lon="5.71546">
        <ele>627</ele>
        <time>2025-01-02T10:12:48.000Z</time>
      </trkpt>
      <trkpt lat="45.43411" lon="5.71517">
        <ele>631</ele>
        <time>2025-01-02T10:12:48.000Z</time>
      </trkpt>
      <trkpt lat="45.43411" lon="5.71505">
        <ele>633</ele>
        <time>2025-01-02T10:12:48.000Z</time>
      </trkpt>
      <trkpt lat="45.43417" lon="5.71498">
        <ele>634</ele>
        <time>2025-01-02T10:12:48.000Z</time>
      </trkpt>
      <trkpt lat="45.4343" lon="5.71507">
        <ele>637</ele>
        <time>2025-01-02T10:12:48.000Z</time>
      </trkpt>
      <trkpt lat="45.43443" lon="5.71517">
        <ele>640</ele>
        <time>2025-01-02T10:12:48.000Z</time>
      </trkpt>
      <trkpt lat="45.4344" lon="5.71488">
        <ele>637</ele>
        <time>2025-01-02T10:12:48.000Z</time>
      </trkpt>
      <trkpt lat="45.43451" lon="5.71497">
        <ele>640</ele>
        <time>2025-01-02T10:12:48.000Z</time>
      </trkpt>
      <trkpt lat="45.43442" lon="5.71488">
        <ele>637</ele>
        <time>2025-01-02T10:12:48.000Z</time>
      </trkpt>
      <trkpt lat="45.43445" lon="5.71519">
        <ele>640</ele>
        <time>2025-01-02T10:12:48.000Z</time>
      </trkpt>
      <trkpt lat="45.43426" lon="5.71505">
        <ele>636</ele>
        <time>2025-01-02T10:12:48.000Z</time>
      </trkpt>
      <trkpt lat="45.43418" lon="5.71499">
        <ele>634</ele>
        <time>2025-01-02T10:12:48.000Z</time>
      </trkpt>
      <trkpt lat="45.4341" lon="5.71503">
        <ele>633</ele>
        <time>2025-01-02T10:12:48.000Z</time>
      </trkpt>
      <trkpt lat="45.43419" lon="5.71546">
        <ele>626</ele>
        <time>2025-01-02T10:12:48.000Z</time>
      </trkpt>
      <trkpt lat="45.43397" lon="5.71528">
        <ele>625</ele>
        <time>2025-01-02T10:12:48.000Z</time>
      </trkpt>
      <trkpt lat="45.43361" lon="5.71516">
        <ele>614</ele>
        <time>2025-01-02T10:12:48.000Z</time>
      </trkpt>
      <trkpt lat="45.43345" lon="5.715">
        <ele>610</ele>
        <time>2025-01-02T10:12:48.000Z</time>
      </trkpt>
      <trkpt lat="45.43336" lon="5.71474">
        <ele>606</ele>
        <time>2025-01-02T10:12:48.000Z</time>
      </trkpt>
      <trkpt lat="45.43333" lon="5.71436">
        <ele>605</ele>
        <time>2025-01-02T10:12:48.000Z</time>
      </trkpt>
      <trkpt lat="45.43347" lon="5.71351">
        <ele>599</ele>
        <time>2025-01-02T10:12:48.000Z</time>
      </trkpt>
      <trkpt lat="45.43333" lon="5.7121">
        <ele>597</ele>
        <time>2025-01-02T10:12:48.000Z</time>
      </trkpt>
      <trkpt lat="45.43342" lon="5.71182">
        <ele>599</ele>
        <time>2025-01-02T10:12:48.000Z</time>
      </trkpt>
      <trkpt lat="45.43351" lon="5.7113">
        <ele>604</ele>
        <time>2025-01-02T10:12:48.000Z</time>
      </trkpt>
      <trkpt lat="45.43363" lon="5.71044">
        <ele>607</ele>
        <time>2025-01-02T10:12:48.000Z</time>
      </trkpt>
      <trkpt lat="45.43375" lon="5.7102">
        <ele>606</ele>
        <time>2025-01-02T10:12:48.000Z</time>
      </trkpt>
      <trkpt lat="45.43394" lon="5.71003">
        <ele>606</ele>
        <time>2025-01-02T10:12:48.000Z</time>
      </trkpt>
      <trkpt lat="45.43386" lon="5.70991">
        <ele>607</ele>
        <time>2025-01-02T10:12:48.000Z</time>
      </trkpt>
      <trkpt lat="45.43429" lon="5.70966">
        <ele>611</ele>
        <time>2025-01-02T10:12:48.000Z</time>
      </trkpt>
      <trkpt lat="45.4349" lon="5.70974">
        <ele>614</ele>
        <time>2025-01-02T10:12:48.000Z</time>
      </trkpt>
      <trkpt lat="45.43511" lon="5.7096">
        <ele>613</ele>
        <time>2025-01-02T10:12:48.000Z</time>
      </trkpt>
      <trkpt lat="45.43533" lon="5.70934">
        <ele>615</ele>
        <time>2025-01-02T10:12:48.000Z</time>
      </trkpt>
      <trkpt lat="45.43552" lon="5.70941">
        <ele>614</ele>
        <time>2025-01-02T10:12:48.000Z</time>
      </trkpt>
      <trkpt lat="45.43565" lon="5.70953">
        <ele>613</ele>
        <time>2025-01-02T10:12:48.000Z</time>
      </trkpt>
      <trkpt lat="45.43619" lon="5.70984">
        <ele>612</ele>
        <time>2025-01-02T10:12:48.000Z</time>
      </trkpt>
      <trkpt lat="45.43647" lon="5.71021">
        <ele>610</ele>
        <time>2025-01-02T10:12:48.000Z</time>
      </trkpt>
      <trkpt lat="45.43675" lon="5.7104">
        <ele>610</ele>
        <time>2025-01-02T10:12:48.000Z</time>
      </trkpt>
      <trkpt lat="45.43711" lon="5.71045">
        <ele>610</ele>
        <time>2025-01-02T10:12:48.000Z</time>
      </trkpt>
      <trkpt lat="45.43733" lon="5.71057">
        <ele>609</ele>
        <time>2025-01-02T10:12:48.000Z</time>
      </trkpt>
      <trkpt lat="45.43756" lon="5.71062">
        <ele>607</ele>
        <time>2025-01-02T10:12:48.000Z</time>
      </trkpt>
      <trkpt lat="45.43785" lon="5.71058">
        <ele>607</ele>
        <time>2025-01-02T10:12:48.000Z</time>
      </trkpt>
      <trkpt lat="45.43814" lon="5.71075">
        <ele>605</ele>
        <time>2025-01-02T10:12:48.000Z</time>
      </trkpt>
      <trkpt lat="45.43844" lon="5.71086">
        <ele>601</ele>
        <time>2025-01-02T10:12:48.000Z</time>
      </trkpt>
      <trkpt lat="45.43861" lon="5.71074">
        <ele>599</ele>
        <time>2025-01-02T10:12:48.000Z</time>
      </trkpt>
      <trkpt lat="45.4388" lon="5.7107">
        <ele>599</ele>
        <time>2025-01-02T10:12:48.000Z</time>
      </trkpt>
      <trkpt lat="45.43903" lon="5.71087">
        <ele>600</ele>
        <time>2025-01-02T10:12:48.000Z</time>
      </trkpt>
      <trkpt lat="45.4397" lon="5.71156">
        <ele>590</ele>
        <time>2025-01-02T10:12:48.000Z</time>
      </trkpt>
      <trkpt lat="45.43981" lon="5.71166">
        <ele>587</ele>
        <time>2025-01-02T10:12:48.000Z</time>
      </trkpt>
      <trkpt lat="45.44029" lon="5.71182">
        <ele>586</ele>
        <time>2025-01-02T10:12:48.000Z</time>
      </trkpt>
      <trkpt lat="45.44054" lon="5.71186">
        <ele>587</ele>
        <time>2025-01-02T10:12:48.000Z</time>
      </trkpt>
      <trkpt lat="45.44072" lon="5.71189">
        <ele>587</ele>
        <time>2025-01-02T10:12:48.000Z</time>
      </trkpt>
      <trkpt lat="45.44083" lon="5.71202">
        <ele>587</ele>
        <time>2025-01-02T10:12:48.000Z</time>
      </trkpt>
      <trkpt lat="45.44118" lon="5.71218">
        <ele>590</ele>
        <time>2025-01-02T10:12:48.000Z</time>
      </trkpt>
      <trkpt lat="45.44154" lon="5.71225">
        <ele>594</ele>
        <time>2025-01-02T10:12:48.000Z</time>
      </trkpt>
      <trkpt lat="45.44163" lon="5.71232">
        <ele>594</ele>
        <time>2025-01-02T10:12:48.000Z</time>
      </trkpt>
      <trkpt lat="45.44173" lon="5.71251">
        <ele>596</ele>
        <time>2025-01-02T10:12:48.000Z</time>
      </trkpt>
      <trkpt lat="45.44221" lon="5.71223">
        <ele>600</ele>
        <time>2025-01-02T10:12:48.000Z</time>
      </trkpt>
      <trkpt lat="45.44235" lon="5.71205">
        <ele>601</ele>
        <time>2025-01-02T10:12:48.000Z</time>
      </trkpt>
      <trkpt lat="45.44257" lon="5.71205">
        <ele>602</ele>
        <time>2025-01-02T10:12:48.000Z</time>
      </trkpt>
      <trkpt lat="45.44287" lon="5.71187">
        <ele>604</ele>
        <time>2025-01-02T10:12:48.000Z</time>
      </trkpt>
      <trkpt lat="45.44301" lon="5.71168">
        <ele>606</ele>
        <time>2025-01-02T10:12:48.000Z</time>
      </trkpt>
      <trkpt lat="45.44311" lon="5.71129">
        <ele>613</ele>
        <time>2025-01-02T10:12:48.000Z</time>
      </trkpt>
      <trkpt lat="45.44311" lon="5.7109">
        <ele>617</ele>
        <time>2025-01-02T10:12:48.000Z</time>
      </trkpt>
      <trkpt lat="45.44307" lon="5.71049">
        <ele>620</ele>
        <time>2025-01-02T10:12:48.000Z</time>
      </trkpt>
      <trkpt lat="45.44308" lon="5.71033">
        <ele>621</ele>
        <time>2025-01-02T10:12:48.000Z</time>
      </trkpt>
      <trkpt lat="45.44319" lon="5.70988">
        <ele>627</ele>
        <time>2025-01-02T10:12:48.000Z</time>
      </trkpt>
      <trkpt lat="45.44316" lon="5.70964">
        <ele>630</ele>
        <time>2025-01-02T10:12:48.000Z</time>
      </trkpt>
      <trkpt lat="45.44275" lon="5.70965">
        <ele>632</ele>
        <time>2025-01-02T10:12:48.000Z</time>
      </trkpt>
      <trkpt lat="45.44265" lon="5.7096">
        <ele>632</ele>
        <time>2025-01-02T10:12:48.000Z</time>
      </trkpt>
      <trkpt lat="45.44332" lon="5.7091">
        <ele>633</ele>
        <time>2025-01-02T10:12:48.000Z</time>
      </trkpt>
      <trkpt lat="45.44377" lon="5.70913">
        <ele>635</ele>
        <time>2025-01-02T10:12:48.000Z</time>
      </trkpt>
      <trkpt lat="45.44424" lon="5.70925">
        <ele>639</ele>
        <time>2025-01-02T10:12:48.000Z</time>
      </trkpt>
      <trkpt lat="45.44495" lon="5.70967">
        <ele>645</ele>
        <time>2025-01-02T10:12:48.000Z</time>
      </trkpt>
      <trkpt lat="45.44591" lon="5.70992">
        <ele>650</ele>
        <time>2025-01-02T10:12:48.000Z</time>
      </trkpt>
      <trkpt lat="45.44713" lon="5.71026">
        <ele>657</ele>
        <time>2025-01-02T10:12:48.000Z</time>
      </trkpt>
      <trkpt lat="45.44753" lon="5.71055">
        <ele>660</ele>
        <time>2025-01-02T10:12:48.000Z</time>
      </trkpt>
      <trkpt lat="45.44781" lon="5.71068">
        <ele>661</ele>
        <time>2025-01-02T10:12:48.000Z</time>
      </trkpt>
      <trkpt lat="45.44791" lon="5.7105">
        <ele>663</ele>
        <time>2025-01-02T10:12:48.000Z</time>
      </trkpt>
      <trkpt lat="45.44814" lon="5.71019">
        <ele>667</ele>
        <time>2025-01-02T10:12:48.000Z</time>
      </trkpt>
      <trkpt lat="45.44836" lon="5.70975">
        <ele>675</ele>
        <time>2025-01-02T10:12:48.000Z</time>
      </trkpt>
      <trkpt lat="45.44857" lon="5.70901">
        <ele>683</ele>
        <time>2025-01-02T10:12:48.000Z</time>
      </trkpt>
      <trkpt lat="45.44873" lon="5.70858">
        <ele>689</ele>
        <time>2025-01-02T10:12:48.000Z</time>
      </trkpt>
      <trkpt lat="45.44883" lon="5.7081">
        <ele>691</ele>
        <time>2025-01-02T10:12:48.000Z</time>
      </trkpt>
      <trkpt lat="45.44895" lon="5.70813">
        <ele>692</ele>
        <time>2025-01-02T10:12:48.000Z</time>
      </trkpt>
      <trkpt lat="45.44915" lon="5.70827">
        <ele>694</ele>
        <time>2025-01-02T10:12:48.000Z</time>
      </trkpt>
      <trkpt lat="45.44937" lon="5.70837">
        <ele>696</ele>
        <time>2025-01-02T10:12:48.000Z</time>
      </trkpt>
      <trkpt lat="45.44945" lon="5.70835">
        <ele>696</ele>
        <time>2025-01-02T10:12:48.000Z</time>
      </trkpt>
      <trkpt lat="45.44962" lon="5.70815">
        <ele>699</ele>
        <time>2025-01-02T10:12:48.000Z</time>
      </trkpt>
      <trkpt lat="45.45008" lon="5.70791">
        <ele>704</ele>
        <time>2025-01-02T10:12:48.000Z</time>
      </trkpt>
      <trkpt lat="45.45024" lon="5.70777">
        <ele>707</ele>
        <time>2025-01-02T10:12:48.000Z</time>
      </trkpt>
      <trkpt lat="45.45038" lon="5.70758">
        <ele>709</ele>
        <time>2025-01-02T10:12:48.000Z</time>
      </trkpt>
      <trkpt lat="45.45043" lon="5.70745">
        <ele>710</ele>
        <time>2025-01-02T10:12:48.000Z</time>
      </trkpt>
      <trkpt lat="45.45052" lon="5.70741">
        <ele>713</ele>
        <time>2025-01-02T10:12:48.000Z</time>
      </trkpt>
      <trkpt lat="45.45094" lon="5.70766">
        <ele>715</ele>
        <time>2025-01-02T10:12:48.000Z</time>
      </trkpt>
      <trkpt lat="45.45111" lon="5.70763">
        <ele>716</ele>
        <time>2025-01-02T10:12:48.000Z</time>
      </trkpt>
      <trkpt lat="45.45162" lon="5.70729">
        <ele>726</ele>
        <time>2025-01-02T10:12:48.000Z</time>
      </trkpt>
      <trkpt lat="45.45273" lon="5.70668">
        <ele>739</ele>
        <time>2025-01-02T10:12:48.000Z</time>
      </trkpt>
      <trkpt lat="45.45348" lon="5.70673">
        <ele>741</ele>
        <time>2025-01-02T10:12:48.000Z</time>
      </trkpt>
      <trkpt lat="45.4538" lon="5.70662">
        <ele>742</ele>
        <time>2025-01-02T10:12:48.000Z</time>
      </trkpt>
      <trkpt lat="45.45416" lon="5.7064">
        <ele>746</ele>
        <time>2025-01-02T10:12:48.000Z</time>
      </trkpt>
      <trkpt lat="45.45435" lon="5.7064">
        <ele>747</ele>
        <time>2025-01-02T10:12:48.000Z</time>
      </trkpt>
      <trkpt lat="45.45445" lon="5.70636">
        <ele>748</ele>
        <time>2025-01-02T10:12:48.000Z</time>
      </trkpt>
      <trkpt lat="45.45471" lon="5.70632">
        <ele>749</ele>
        <time>2025-01-02T10:12:48.000Z</time>
      </trkpt>
      <trkpt lat="45.45485" lon="5.70622">
        <ele>751</ele>
        <time>2025-01-02T10:12:48.000Z</time>
      </trkpt>
      <trkpt lat="45.45511" lon="5.70584">
        <ele>755</ele>
        <time>2025-01-02T10:12:48.000Z</time>
      </trkpt>
      <trkpt lat="45.45569" lon="5.70511">
        <ele>760</ele>
        <time>2025-01-02T10:12:48.000Z</time>
      </trkpt>
      <trkpt lat="45.45602" lon="5.70495">
        <ele>761</ele>
        <time>2025-01-02T10:12:48.000Z</time>
      </trkpt>
      <trkpt lat="45.45567" lon="5.70448">
        <ele>760</ele>
        <time>2025-01-02T10:12:48.000Z</time>
      </trkpt>
      <trkpt lat="45.45575" lon="5.70374">
        <ele>760</ele>
        <time>2025-01-02T10:12:48.000Z</time>
      </trkpt>
      <trkpt lat="45.4558" lon="5.70299">
        <ele>764</ele>
        <time>2025-01-02T10:12:48.000Z</time>
      </trkpt>
      <trkpt lat="45.45576" lon="5.70181">
        <ele>776</ele>
        <time>2025-01-02T10:12:48.000Z</time>
      </trkpt>
      <trkpt lat="45.45567" lon="5.70074">
        <ele>791</ele>
        <time>2025-01-02T10:12:48.000Z</time>
      </trkpt>
      <trkpt lat="45.45602" lon="5.70084">
        <ele>792</ele>
        <time>2025-01-02T10:12:48.000Z</time>
      </trkpt>
      <trkpt lat="45.45651" lon="5.70107">
        <ele>797</ele>
        <time>2025-01-02T10:12:48.000Z</time>
      </trkpt>
      <trkpt lat="45.45665" lon="5.70112">
        <ele>797</ele>
        <time>2025-01-02T10:12:48.000Z</time>
      </trkpt>
      <trkpt lat="45.45677" lon="5.70106">
        <ele>799</ele>
        <time>2025-01-02T10:12:48.000Z</time>
      </trkpt>
      <trkpt lat="45.45679" lon="5.70089">
        <ele>802</ele>
        <time>2025-01-02T10:12:48.000Z</time>
      </trkpt>
      <trkpt lat="45.45679" lon="5.70062">
        <ele>807</ele>
        <time>2025-01-02T10:12:48.000Z</time>
      </trkpt>
      <trkpt lat="45.45682" lon="5.70042">
        <ele>809</ele>
        <time>2025-01-02T10:12:48.000Z</time>
      </trkpt>
      <trkpt lat="45.45721" lon="5.69964">
        <ele>819</ele>
        <time>2025-01-02T10:12:48.000Z</time>
      </trkpt>
      <trkpt lat="45.45762" lon="5.6993">
        <ele>827</ele>
        <time>2025-01-02T10:12:48.000Z</time>
      </trkpt>
      <trkpt lat="45.4577" lon="5.69914">
        <ele>829</ele>
        <time>2025-01-02T10:12:48.000Z</time>
      </trkpt>
      <trkpt lat="45.45778" lon="5.6989">
        <ele>831</ele>
        <time>2025-01-02T10:12:48.000Z</time>
      </trkpt>
      <trkpt lat="45.45791" lon="5.69826">
        <ele>835</ele>
        <time>2025-01-02T10:12:48.000Z</time>
      </trkpt>
      <trkpt lat="45.45788" lon="5.69796">
        <ele>836</ele>
        <time>2025-01-02T10:12:48.000Z</time>
      </trkpt>
      <trkpt lat="45.45779" lon="5.69767">
        <ele>838</ele>
        <time>2025-01-02T10:12:48.000Z</time>
      </trkpt>
      <trkpt lat="45.45772" lon="5.69742">
        <ele>839</ele>
        <time>2025-01-02T10:12:48.000Z</time>
      </trkpt>
      <trkpt lat="45.4577" lon="5.6972">
        <ele>840</ele>
        <time>2025-01-02T10:12:48.000Z</time>
      </trkpt>
      <trkpt lat="45.4577" lon="5.69694">
        <ele>841</ele>
        <time>2025-01-02T10:12:48.000Z</time>
      </trkpt>
      <trkpt lat="45.45769" lon="5.69669">
        <ele>843</ele>
        <time>2025-01-02T10:12:48.000Z</time>
      </trkpt>
      <trkpt lat="45.45768" lon="5.69643">
        <ele>844</ele>
        <time>2025-01-02T10:12:48.000Z</time>
      </trkpt>
      <trkpt lat="45.45764" lon="5.6962">
        <ele>845</ele>
        <time>2025-01-02T10:12:48.000Z</time>
      </trkpt>
      <trkpt lat="45.45745" lon="5.69594">
        <ele>846</ele>
        <time>2025-01-02T10:12:48.000Z</time>
      </trkpt>
      <trkpt lat="45.45727" lon="5.69579">
        <ele>846</ele>
        <time>2025-01-02T10:12:48.000Z</time>
      </trkpt>
      <trkpt lat="45.45698" lon="5.69558">
        <ele>846</ele>
        <time>2025-01-02T10:12:48.000Z</time>
      </trkpt>
      <trkpt lat="45.45662" lon="5.69542">
        <ele>847</ele>
        <time>2025-01-02T10:12:48.000Z</time>
      </trkpt>
      <trkpt lat="45.45642" lon="5.69544">
        <ele>847</ele>
        <time>2025-01-02T10:12:48.000Z</time>
      </trkpt>
      <trkpt lat="45.45619" lon="5.69563">
        <ele>847</ele>
        <time>2025-01-02T10:12:48.000Z</time>
      </trkpt>
      <trkpt lat="45.45608" lon="5.69565">
        <ele>847</ele>
        <time>2025-01-02T10:12:48.000Z</time>
      </trkpt>
      <trkpt lat="45.45591" lon="5.69584">
        <ele>847</ele>
        <time>2025-01-02T10:12:48.000Z</time>
      </trkpt>
      <trkpt lat="45.45577" lon="5.69614">
        <ele>845</ele>
        <time>2025-01-02T10:12:48.000Z</time>
      </trkpt>
      <trkpt lat="45.4556" lon="5.69643">
        <ele>843</ele>
        <time>2025-01-02T10:12:48.000Z</time>
      </trkpt>
      <trkpt lat="45.45468" lon="5.69623">
        <ele>841</ele>
        <time>2025-01-02T10:12:48.000Z</time>
      </trkpt>
      <trkpt lat="45.45393" lon="5.69635">
        <ele>834</ele>
        <time>2025-01-02T10:12:48.000Z</time>
      </trkpt>
      <trkpt lat="45.4531" lon="5.69576">
        <ele>831</ele>
        <time>2025-01-02T10:12:48.000Z</time>
      </trkpt>
      <trkpt lat="45.45305" lon="5.69551">
        <ele>831</ele>
        <time>2025-01-02T10:12:48.000Z</time>
      </trkpt>
      <trkpt lat="45.453" lon="5.69526">
        <ele>832</ele>
        <time>2025-01-02T10:12:48.000Z</time>
      </trkpt>
      <trkpt lat="45.45276" lon="5.69522">
        <ele>831</ele>
        <time>2025-01-02T10:12:48.000Z</time>
      </trkpt>
      <trkpt lat="45.4526" lon="5.69499">
        <ele>830</ele>
        <time>2025-01-02T10:12:48.000Z</time>
      </trkpt>
      <trkpt lat="45.45251" lon="5.69431">
        <ele>828</ele>
        <time>2025-01-02T10:12:48.000Z</time>
      </trkpt>
      <trkpt lat="45.45239" lon="5.69411">
        <ele>826</ele>
        <time>2025-01-02T10:12:48.000Z</time>
      </trkpt>
      <trkpt lat="45.45201" lon="5.69388">
        <ele>822</ele>
        <time>2025-01-02T10:12:48.000Z</time>
      </trkpt>
      <trkpt lat="45.45137" lon="5.69386">
        <ele>822</ele>
        <time>2025-01-02T10:12:48.000Z</time>
      </trkpt>
      <trkpt lat="45.45076" lon="5.69332">
        <ele>815</ele>
        <time>2025-01-02T10:12:48.000Z</time>
      </trkpt>
      <trkpt lat="45.45028" lon="5.69294">
        <ele>807</ele>
        <time>2025-01-02T10:12:48.000Z</time>
      </trkpt>
      <trkpt lat="45.44976" lon="5.69233">
        <ele>805</ele>
        <time>2025-01-02T10:12:48.000Z</time>
      </trkpt>
      <trkpt lat="45.44827" lon="5.69033">
        <ele>802</ele>
        <time>2025-01-02T10:12:48.000Z</time>
      </trkpt>
      <trkpt lat="45.44799" lon="5.69027">
        <ele>802</ele>
        <time>2025-01-02T10:12:48.000Z</time>
      </trkpt>
      <trkpt lat="45.44773" lon="5.68992">
        <ele>802</ele>
        <time>2025-01-02T10:12:48.000Z</time>
      </trkpt>
      <trkpt lat="45.44629" lon="5.68983">
        <ele>815</ele>
        <time>2025-01-02T10:12:48.000Z</time>
      </trkpt>
      <trkpt lat="45.4461" lon="5.68989">
        <ele>816</ele>
        <time>2025-01-02T10:12:48.000Z</time>
      </trkpt>
      <trkpt lat="45.44591" lon="5.68995">
        <ele>817</ele>
        <time>2025-01-02T10:12:48.000Z</time>
      </trkpt>
      <trkpt lat="45.44521" lon="5.68969">
        <ele>820</ele>
        <time>2025-01-02T10:12:48.000Z</time>
      </trkpt>
      <trkpt lat="45.44456" lon="5.68972">
        <ele>820</ele>
        <time>2025-01-02T10:12:48.000Z</time>
      </trkpt>
      <trkpt lat="45.44443" lon="5.69045">
        <ele>819</ele>
        <time>2025-01-02T10:12:48.000Z</time>
      </trkpt>
      <trkpt lat="45.4435" lon="5.6902">
        <ele>824</ele>
        <time>2025-01-02T10:12:48.000Z</time>
      </trkpt>
      <trkpt lat="45.44313" lon="5.69031">
        <ele>826</ele>
        <time>2025-01-02T10:12:48.000Z</time>
      </trkpt>
      <trkpt lat="45.4427" lon="5.69012">
        <ele>828</ele>
        <time>2025-01-02T10:12:48.000Z</time>
      </trkpt>
      <trkpt lat="45.44262" lon="5.69009">
        <ele>828</ele>
        <time>2025-01-02T10:12:48.000Z</time>
      </trkpt>
      <trkpt lat="45.44255" lon="5.69006">
        <ele>828</ele>
        <time>2025-01-02T10:12:48.000Z</time>
      </trkpt>
      <trkpt lat="45.44232" lon="5.68994">
        <ele>828</ele>
        <time>2025-01-02T10:12:48.000Z</time>
      </trkpt>
      <trkpt lat="45.44206" lon="5.68995">
        <ele>828</ele>
        <time>2025-01-02T10:12:48.000Z</time>
      </trkpt>
      <trkpt lat="45.44168" lon="5.68979">
        <ele>829</ele>
        <time>2025-01-02T10:12:48.000Z</time>
      </trkpt>
      <trkpt lat="45.4412" lon="5.68966">
        <ele>829</ele>
        <time>2025-01-02T10:12:48.000Z</time>
      </trkpt>
      <trkpt lat="45.44085" lon="5.68941">
        <ele>828</ele>
        <time>2025-01-02T10:12:48.000Z</time>
      </trkpt>
      <trkpt lat="45.44035" lon="5.68925">
        <ele>828</ele>
        <time>2025-01-02T10:12:48.000Z</time>
      </trkpt>
      <trkpt lat="45.43988" lon="5.68919">
        <ele>826</ele>
        <time>2025-01-02T10:12:48.000Z</time>
      </trkpt>
      <trkpt lat="45.43942" lon="5.68913">
        <ele>824</ele>
        <time>2025-01-02T10:12:48.000Z</time>
      </trkpt>
      <trkpt lat="45.43968" lon="5.68861">
        <ele>823</ele>
        <time>2025-01-02T10:12:48.000Z</time>
      </trkpt>
      <trkpt lat="45.43992" lon="5.68844">
        <ele>822</ele>
        <time>2025-01-02T10:12:48.000Z</time>
      </trkpt>
      <trkpt lat="45.44002" lon="5.68813">
        <ele>823</ele>
        <time>2025-01-02T10:12:48.000Z</time>
      </trkpt>
      <trkpt lat="45.44008" lon="5.68786">
        <ele>824</ele>
        <time>2025-01-02T10:12:48.000Z</time>
      </trkpt>
      <trkpt lat="45.44" lon="5.68757">
        <ele>824</ele>
        <time>2025-01-02T10:12:48.000Z</time>
      </trkpt>
      <trkpt lat="45.43956" lon="5.68689">
        <ele>829</ele>
        <time>2025-01-02T10:12:48.000Z</time>
      </trkpt>
      <trkpt lat="45.43848" lon="5.68537">
        <ele>836</ele>
        <time>2025-01-02T10:12:48.000Z</time>
      </trkpt>
      <trkpt lat="45.43868" lon="5.68539">
        <ele>836</ele>
        <time>2025-01-02T10:12:48.000Z</time>
      </trkpt>
      <trkpt lat="45.43885" lon="5.68562">
        <ele>836</ele>
        <time>2025-01-02T10:12:48.000Z</time>
      </trkpt>
      <trkpt lat="45.4388" lon="5.68522">
        <ele>837</ele>
        <time>2025-01-02T10:12:48.000Z</time>
      </trkpt>
      <trkpt lat="45.4384" lon="5.68345">
        <ele>848</ele>
        <time>2025-01-02T10:12:48.000Z</time>
      </trkpt>
      <trkpt lat="45.43848" lon="5.68287">
        <ele>852</ele>
        <time>2025-01-02T10:12:48.000Z</time>
      </trkpt>
      <trkpt lat="45.4388" lon="5.68161">
        <ele>863</ele>
        <time>2025-01-02T10:12:48.000Z</time>
      </trkpt>
      <trkpt lat="45.43878" lon="5.68125">
        <ele>864</ele>
        <time>2025-01-02T10:12:48.000Z</time>
      </trkpt>
      <trkpt lat="45.43856" lon="5.68085">
        <ele>863</ele>
        <time>2025-01-02T10:12:48.000Z</time>
      </trkpt>
      <trkpt lat="45.43812" lon="5.68034">
        <ele>859</ele>
        <time>2025-01-02T10:12:48.000Z</time>
      </trkpt>
      <trkpt lat="45.43784" lon="5.68011">
        <ele>857</ele>
        <time>2025-01-02T10:12:48.000Z</time>
      </trkpt>
      <trkpt lat="45.43741" lon="5.67989">
        <ele>856</ele>
        <time>2025-01-02T10:12:48.000Z</time>
      </trkpt>
      <trkpt lat="45.43684" lon="5.67909">
        <ele>852</ele>
        <time>2025-01-02T10:12:48.000Z</time>
      </trkpt>
      <trkpt lat="45.43582" lon="5.67843">
        <ele>850</ele>
        <time>2025-01-02T10:12:48.000Z</time>
      </trkpt>
      <trkpt lat="45.43552" lon="5.67876">
        <ele>854</ele>
        <time>2025-01-02T10:12:48.000Z</time>
      </trkpt>
      <trkpt lat="45.43529" lon="5.67865">
        <ele>856</ele>
        <time>2025-01-02T10:12:48.000Z</time>
      </trkpt>
      <trkpt lat="45.43437" lon="5.67785">
        <ele>858</ele>
        <time>2025-01-02T10:12:48.000Z</time>
      </trkpt>
      <trkpt lat="45.43359" lon="5.6779">
        <ele>868</ele>
        <time>2025-01-02T10:12:48.000Z</time>
      </trkpt>
      <trkpt lat="45.43312" lon="5.67789">
        <ele>872</ele>
        <time>2025-01-02T10:12:48.000Z</time>
      </trkpt>
      <trkpt lat="45.433" lon="5.68027">
        <ele>870</ele>
        <time>2025-01-02T10:12:48.000Z</time>
      </trkpt>
      <trkpt lat="45.43321" lon="5.68097">
        <ele>865</ele>
        <time>2025-01-02T10:12:48.000Z</time>
      </trkpt>
      <trkpt lat="45.43236" lon="5.68111">
        <ele>867</ele>
        <time>2025-01-02T10:12:48.000Z</time>
      </trkpt>
      <trkpt lat="45.43213" lon="5.68089">
        <ele>868</ele>
        <time>2025-01-02T10:12:48.000Z</time>
      </trkpt>
      <trkpt lat="45.43107" lon="5.68089">
        <ele>870</ele>
        <time>2025-01-02T10:12:48.000Z</time>
      </trkpt>
      <trkpt lat="45.43051" lon="5.68094">
        <ele>872</ele>
        <time>2025-01-02T10:12:48.000Z</time>
      </trkpt>
      <trkpt lat="45.4304" lon="5.68121">
        <ele>872</ele>
        <time>2025-01-02T10:12:48.000Z</time>
      </trkpt>
      <trkpt lat="45.43034" lon="5.68172">
        <ele>870</ele>
        <time>2025-01-02T10:12:48.000Z</time>
      </trkpt>
      <trkpt lat="45.43033" lon="5.68227">
        <ele>863</ele>
        <time>2025-01-02T10:12:48.000Z</time>
      </trkpt>
      <trkpt lat="45.43013" lon="5.68319">
        <ele>852</ele>
        <time>2025-01-02T10:12:48.000Z</time>
      </trkpt>
      <trkpt lat="45.42986" lon="5.68363">
        <ele>843</ele>
        <time>2025-01-02T10:12:48.000Z</time>
      </trkpt>
      <trkpt lat="45.4297" lon="5.6841">
        <ele>838</ele>
        <time>2025-01-02T10:12:48.000Z</time>
      </trkpt>
      <trkpt lat="45.42975" lon="5.68443">
        <ele>835</ele>
        <time>2025-01-02T10:12:48.000Z</time>
      </trkpt>
      <trkpt lat="45.42994" lon="5.68504">
        <ele>827</ele>
        <time>2025-01-02T10:12:48.000Z</time>
      </trkpt>
      <trkpt lat="45.42988" lon="5.68542">
        <ele>823</ele>
        <time>2025-01-02T10:12:48.000Z</time>
      </trkpt>
      <trkpt lat="45.42976" lon="5.68608">
        <ele>818</ele>
        <time>2025-01-02T10:12:48.000Z</time>
      </trkpt>
      <trkpt lat="45.42979" lon="5.68652">
        <ele>815</ele>
        <time>2025-01-02T10:12:48.000Z</time>
      </trkpt>
      <trkpt lat="45.42998" lon="5.68705">
        <ele>810</ele>
        <time>2025-01-02T10:12:48.000Z</time>
      </trkpt>
      <trkpt lat="45.43055" lon="5.6875">
        <ele>812</ele>
        <time>2025-01-02T10:12:48.000Z</time>
      </trkpt>
      <trkpt lat="45.43112" lon="5.68793">
        <ele>812</ele>
        <time>2025-01-02T10:12:48.000Z</time>
      </trkpt>
      <trkpt lat="45.43109" lon="5.68825">
        <ele>809</ele>
        <time>2025-01-02T10:12:48.000Z</time>
      </trkpt>
      <trkpt lat="45.4313" lon="5.68893">
        <ele>806</ele>
        <time>2025-01-02T10:12:48.000Z</time>
      </trkpt>
      <trkpt lat="45.43139" lon="5.68952">
        <ele>801</ele>
        <time>2025-01-02T10:12:48.000Z</time>
      </trkpt>
      <trkpt lat="45.43159" lon="5.68971">
        <ele>800</ele>
        <time>2025-01-02T10:12:48.000Z</time>
      </trkpt>
      <trkpt lat="45.43167" lon="5.69014">
        <ele>799</ele>
        <time>2025-01-02T10:12:48.000Z</time>
      </trkpt>
      <trkpt lat="45.43159" lon="5.69036">
        <ele>798</ele>
        <time>2025-01-02T10:12:48.000Z</time>
      </trkpt>
      <trkpt lat="45.43154" lon="5.69082">
        <ele>795</ele>
        <time>2025-01-02T10:12:48.000Z</time>
      </trkpt>
      <trkpt lat="45.43144" lon="5.69132">
        <ele>793</ele>
        <time>2025-01-02T10:12:48.000Z</time>
      </trkpt>
      <trkpt lat="45.43175" lon="5.69199">
        <ele>793</ele>
        <time>2025-01-02T10:12:48.000Z</time>
      </trkpt>
      <trkpt lat="45.43179" lon="5.69213">
        <ele>792</ele>
        <time>2025-01-02T10:12:48.000Z</time>
      </trkpt>
      <trkpt lat="45.43184" lon="5.69265">
        <ele>791</ele>
        <time>2025-01-02T10:12:48.000Z</time>
      </trkpt>
      <trkpt lat="45.43191" lon="5.693">
        <ele>791</ele>
        <time>2025-01-02T10:12:48.000Z</time>
      </trkpt>
      <trkpt lat="45.43169" lon="5.69364">
        <ele>788</ele>
        <time>2025-01-02T10:12:48.000Z</time>
      </trkpt>
      <trkpt lat="45.4315" lon="5.69432">
        <ele>785</ele>
        <time>2025-01-02T10:12:48.000Z</time>
      </trkpt>
      <trkpt lat="45.43159" lon="5.69464">
        <ele>784</ele>
        <time>2025-01-02T10:12:48.000Z</time>
      </trkpt>
      <trkpt lat="45.43152" lon="5.69493">
        <ele>781</ele>
        <time>2025-01-02T10:12:48.000Z</time>
      </trkpt>
      <trkpt lat="45.43142" lon="5.69529">
        <ele>776</ele>
        <time>2025-01-02T10:12:48.000Z</time>
      </trkpt>
      <trkpt lat="45.4313" lon="5.69569">
        <ele>770</ele>
        <time>2025-01-02T10:12:48.000Z</time>
      </trkpt>
      <trkpt lat="45.43112" lon="5.69618">
        <ele>762</ele>
        <time>2025-01-02T10:12:48.000Z</time>
      </trkpt>
      <trkpt lat="45.43157" lon="5.6968">
        <ele>756</ele>
        <time>2025-01-02T10:12:48.000Z</time>
      </trkpt>
      <trkpt lat="45.43183" lon="5.69702">
        <ele>755</ele>
        <time>2025-01-02T10:12:48.000Z</time>
      </trkpt>
      <trkpt lat="45.43203" lon="5.69712">
        <ele>754</ele>
        <time>2025-01-02T10:12:48.000Z</time>
      </trkpt>
      <trkpt lat="45.4323" lon="5.69716">
        <ele>755</ele>
        <time>2025-01-02T10:12:48.000Z</time>
      </trkpt>
      <trkpt lat="45.43245" lon="5.69744">
        <ele>753</ele>
        <time>2025-01-02T10:12:48.000Z</time>
      </trkpt>
      <trkpt lat="45.43265" lon="5.6978">
        <ele>750</ele>
        <time>2025-01-02T10:12:48.000Z</time>
      </trkpt>
      <trkpt lat="45.43268" lon="5.69807">
        <ele>747</ele>
        <time>2025-01-02T10:12:48.000Z</time>
      </trkpt>
      <trkpt lat="45.43283" lon="5.69834">
        <ele>745</ele>
        <time>2025-01-02T10:12:48.000Z</time>
      </trkpt>
      <trkpt lat="45.43306" lon="5.69771">
        <ele>754</ele>
        <time>2025-01-02T10:12:48.000Z</time>
      </trkpt>
      <trkpt lat="45.43334" lon="5.69718">
        <ele>761</ele>
        <time>2025-01-02T10:12:48.000Z</time>
      </trkpt>
      <trkpt lat="45.43339" lon="5.69688">
        <ele>765</ele>
        <time>2025-01-02T10:12:48.000Z</time>
      </trkpt>
      <trkpt lat="45.43344" lon="5.69658">
        <ele>769</ele>
        <time>2025-01-02T10:12:48.000Z</time>
      </trkpt>
      <trkpt lat="45.43406" lon="5.6968">
        <ele>772</ele>
        <time>2025-01-02T10:12:48.000Z</time>
      </trkpt>
      <trkpt lat="45.43416" lon="5.69718">
        <ele>770</ele>
        <time>2025-01-02T10:12:48.000Z</time>
      </trkpt>
      <trkpt lat="45.43414" lon="5.69744">
        <ele>768</ele>
        <time>2025-01-02T10:12:48.000Z</time>
      </trkpt>
      <trkpt lat="45.43406" lon="5.6977">
        <ele>765</ele>
        <time>2025-01-02T10:12:48.000Z</time>
      </trkpt>
      <trkpt lat="45.43415" lon="5.698">
        <ele>763</ele>
        <time>2025-01-02T10:12:48.000Z</time>
      </trkpt>
      <trkpt lat="45.43427" lon="5.69816">
        <ele>763</ele>
        <time>2025-01-02T10:12:48.000Z</time>
      </trkpt>
      <trkpt lat="45.43468" lon="5.69874">
        <ele>759</ele>
        <time>2025-01-02T10:12:48.000Z</time>
      </trkpt>
      <trkpt lat="45.4349" lon="5.69885">
        <ele>759</ele>
        <time>2025-01-02T10:12:48.000Z</time>
      </trkpt>
      <trkpt lat="45.43506" lon="5.69901">
        <ele>756</ele>
        <time>2025-01-02T10:12:48.000Z</time>
      </trkpt>
      <trkpt lat="45.43516" lon="5.69953">
        <ele>747</ele>
        <time>2025-01-02T10:12:48.000Z</time>
      </trkpt>
      <trkpt lat="45.43552" lon="5.69983">
        <ele>743</ele>
        <time>2025-01-02T10:12:48.000Z</time>
      </trkpt>
      <trkpt lat="45.43575" lon="5.69987">
        <ele>743</ele>
        <time>2025-01-02T10:12:48.000Z</time>
      </trkpt>
      <trkpt lat="45.43578" lon="5.70011">
        <ele>739</ele>
        <time>2025-01-02T10:12:48.000Z</time>
      </trkpt>
      <trkpt lat="45.43611" lon="5.70072">
        <ele>733</ele>
        <time>2025-01-02T10:12:48.000Z</time>
      </trkpt>
      <trkpt lat="45.43636" lon="5.70133">
        <ele>728</ele>
        <time>2025-01-02T10:12:48.000Z</time>
      </trkpt>
      <trkpt lat="45.43613" lon="5.70181">
        <ele>721</ele>
        <time>2025-01-02T10:12:48.000Z</time>
      </trkpt>
      <trkpt lat="45.43616" lon="5.70197">
        <ele>718</ele>
        <time>2025-01-02T10:12:48.000Z</time>
      </trkpt>
      <trkpt lat="45.43646" lon="5.70228">
        <ele>714</ele>
        <time>2025-01-02T10:12:48.000Z</time>
      </trkpt>
      <trkpt lat="45.43654" lon="5.70255">
        <ele>711</ele>
        <time>2025-01-02T10:12:48.000Z</time>
      </trkpt>
      <trkpt lat="45.43651" lon="5.70299">
        <ele>706</ele>
        <time>2025-01-02T10:12:48.000Z</time>
      </trkpt>
      <trkpt lat="45.4363" lon="5.70366">
        <ele>698</ele>
        <time>2025-01-02T10:12:48.000Z</time>
      </trkpt>
      <trkpt lat="45.436" lon="5.70376">
        <ele>697</ele>
        <time>2025-01-02T10:12:48.000Z</time>
      </trkpt>
      <trkpt lat="45.43569" lon="5.70386">
        <ele>696</ele>
        <time>2025-01-02T10:12:48.000Z</time>
      </trkpt>
      <trkpt lat="45.43537" lon="5.70411">
        <ele>693</ele>
        <time>2025-01-02T10:12:48.000Z</time>
      </trkpt>
      <trkpt lat="45.43523" lon="5.70443">
        <ele>687</ele>
        <time>2025-01-02T10:12:48.000Z</time>
      </trkpt>
      <trkpt lat="45.435" lon="5.70452">
        <ele>685</ele>
        <time>2025-01-02T10:12:48.000Z</time>
      </trkpt>
      <trkpt lat="45.43479" lon="5.70482">
        <ele>679</ele>
        <time>2025-01-02T10:12:48.000Z</time>
      </trkpt>
      <trkpt lat="45.43508" lon="5.70496">
        <ele>676</ele>
        <time>2025-01-02T10:12:48.000Z</time>
      </trkpt>
      <trkpt lat="45.43474" lon="5.70487">
        <ele>678</ele>
        <time>2025-01-02T10:12:48.000Z</time>
      </trkpt>
      <trkpt lat="45.43461" lon="5.70511">
        <ele>674</ele>
        <time>2025-01-02T10:12:48.000Z</time>
      </trkpt>
      <trkpt lat="45.43485" lon="5.70524">
        <ele>672</ele>
        <time>2025-01-02T10:12:48.000Z</time>
      </trkpt>
      <trkpt lat="45.43483" lon="5.70538">
        <ele>669</ele>
        <time>2025-01-02T10:12:48.000Z</time>
      </trkpt>
      <trkpt lat="45.43477" lon="5.70552">
        <ele>667</ele>
        <time>2025-01-02T10:12:48.000Z</time>
      </trkpt>
      <trkpt lat="45.43454" lon="5.70572">
        <ele>662</ele>
        <time>2025-01-02T10:12:48.000Z</time>
      </trkpt>
      <trkpt lat="45.43433" lon="5.70567">
        <ele>663</ele>
        <time>2025-01-02T10:12:48.000Z</time>
      </trkpt>
      <trkpt lat="45.43407" lon="5.70569">
        <ele>661</ele>
        <time>2025-01-02T10:12:48.000Z</time>
      </trkpt>
      <trkpt lat="45.43397" lon="5.70584">
        <ele>658</ele>
        <time>2025-01-02T10:12:48.000Z</time>
      </trkpt>
      <trkpt lat="45.43394" lon="5.70615">
        <ele>654</ele>
        <time>2025-01-02T10:12:48.000Z</time>
      </trkpt>
      <trkpt lat="45.43388" lon="5.70639">
        <ele>650</ele>
        <time>2025-01-02T10:12:48.000Z</time>
      </trkpt>
      <trkpt lat="45.43367" lon="5.70622">
        <ele>653</ele>
        <time>2025-01-02T10:12:48.000Z</time>
      </trkpt>
      <trkpt lat="45.43343" lon="5.70604">
        <ele>655</ele>
        <time>2025-01-02T10:12:48.000Z</time>
      </trkpt>
      <trkpt lat="45.43321" lon="5.70576">
        <ele>659</ele>
        <time>2025-01-02T10:12:48.000Z</time>
      </trkpt>
      <trkpt lat="45.43302" lon="5.70554">
        <ele>662</ele>
        <time>2025-01-02T10:12:48.000Z</time>
      </trkpt>
      <trkpt lat="45.43273" lon="5.70533">
        <ele>666</ele>
        <time>2025-01-02T10:12:48.000Z</time>
      </trkpt>
      <trkpt lat="45.43228" lon="5.70495">
        <ele>670</ele>
        <time>2025-01-02T10:12:48.000Z</time>
      </trkpt>
      <trkpt lat="45.43213" lon="5.70498">
        <ele>669</ele>
        <time>2025-01-02T10:12:48.000Z</time>
      </trkpt>
      <trkpt lat="45.43193" lon="5.70494">
        <ele>669</ele>
        <time>2025-01-02T10:12:48.000Z</time>
      </trkpt>
      <trkpt lat="45.43174" lon="5.70527">
        <ele>660</ele>
        <time>2025-01-02T10:12:48.000Z</time>
      </trkpt>
      <trkpt lat="45.43148" lon="5.70557">
        <ele>658</ele>
        <time>2025-01-02T10:12:48.000Z</time>
      </trkpt>
      <trkpt lat="45.43133" lon="5.70597">
        <ele>652</ele>
        <time>2025-01-02T10:12:48.000Z</time>
      </trkpt>
      <trkpt lat="45.43116" lon="5.70605">
        <ele>649</ele>
        <time>2025-01-02T10:12:48.000Z</time>
      </trkpt>
      <trkpt lat="45.43106" lon="5.70624">
        <ele>645</ele>
        <time>2025-01-02T10:12:48.000Z</time>
      </trkpt>
      <trkpt lat="45.43103" lon="5.70666">
        <ele>639</ele>
        <time>2025-01-02T10:12:48.000Z</time>
      </trkpt>
      <trkpt lat="45.43095" lon="5.70697">
        <ele>635</ele>
        <time>2025-01-02T10:12:48.000Z</time>
      </trkpt>
      <trkpt lat="45.43085" lon="5.70721">
        <ele>633</ele>
        <time>2025-01-02T10:12:48.000Z</time>
      </trkpt>
      <trkpt lat="45.43076" lon="5.70724">
        <ele>631</ele>
        <time>2025-01-02T10:12:48.000Z</time>
      </trkpt>
      <trkpt lat="45.43061" lon="5.70702">
        <ele>629</ele>
        <time>2025-01-02T10:12:48.000Z</time>
      </trkpt>
      <trkpt lat="45.43052" lon="5.70696">
        <ele>628</ele>
        <time>2025-01-02T10:12:48.000Z</time>
      </trkpt>
      <trkpt lat="45.43041" lon="5.70701">
        <ele>625</ele>
        <time>2025-01-02T10:12:48.000Z</time>
      </trkpt>
      <trkpt lat="45.43036" lon="5.70714">
        <ele>622</ele>
        <time>2025-01-02T10:12:48.000Z</time>
      </trkpt>
      <trkpt lat="45.43033" lon="5.70729">
        <ele>620</ele>
        <time>2025-01-02T10:12:48.000Z</time>
      </trkpt>
      <trkpt lat="45.43035" lon="5.70753">
        <ele>617</ele>
        <time>2025-01-02T10:12:48.000Z</time>
      </trkpt>
      <trkpt lat="45.43038" lon="5.70781">
        <ele>613</ele>
        <time>2025-01-02T10:12:48.000Z</time>
      </trkpt>
      <trkpt lat="45.43035" lon="5.70813">
        <ele>610</ele>
        <time>2025-01-02T10:12:48.000Z</time>
      </trkpt>
      <trkpt lat="45.43029" lon="5.70844">
        <ele>607</ele>
        <time>2025-01-02T10:12:48.000Z</time>
      </trkpt>
      <trkpt lat="45.42987" lon="5.70832">
        <ele>604</ele>
        <time>2025-01-02T10:12:48.000Z</time>
      </trkpt>
      <trkpt lat="45.42953" lon="5.70819">
        <ele>603</ele>
        <time>2025-01-02T10:12:48.000Z</time>
      </trkpt>
      <trkpt lat="45.42916" lon="5.70808">
        <ele>601</ele>
        <time>2025-01-02T10:12:48.000Z</time>
      </trkpt>
      <trkpt lat="45.42891" lon="5.70791">
        <ele>600</ele>
        <time>2025-01-02T10:12:48.000Z</time>
      </trkpt>
      <trkpt lat="45.42843" lon="5.70746">
        <ele>599</ele>
        <time>2025-01-02T10:12:48.000Z</time>
      </trkpt>
      <trkpt lat="45.42823" lon="5.70736">
        <ele>596</ele>
        <time>2025-01-02T10:12:48.000Z</time>
      </trkpt>
      <trkpt lat="45.42816" lon="5.70752">
        <ele>596</ele>
        <time>2025-01-02T10:12:48.000Z</time>
      </trkpt>
      <trkpt lat="45.42811" lon="5.70777">
        <ele>592</ele>
        <time>2025-01-02T10:12:48.000Z</time>
      </trkpt>
      <trkpt lat="45.42798" lon="5.70804">
        <ele>585</ele>
        <time>2025-01-02T10:12:48.000Z</time>
      </trkpt>
      <trkpt lat="45.42655" lon="5.70688">
        <ele>579</ele>
        <time>2025-01-02T10:12:48.000Z</time>
      </trkpt>
    </trkseg>
  </trk>
</gpx>